This is the latest recevied weather packets stored in our database for station/object KD8JAM. If no packets are shown the sender has not sent any weather packets the latest 10 day(s).
| Time | Temp. | Humidity | Pressure | Rain* | Wind** | Luminosity | Snow |
|---|---|---|---|---|---|---|---|
| 1777808067 | 3.33° C | 81% | 1005.7 hPa | 0 mm | - | 34 W/m² | - |
| 1777807764 | 2.78° C | 80% | 1005.6 hPa | 0 mm | - | 32 W/m² | - |
| 1777807462 | 3.33° C | 80% | 1005.7 hPa | 0 mm | - | 29 W/m² | - |
| 1777807157 | 3.33° C | 80% | 1005.7 hPa | 0 mm | - | 30 W/m² | - |
| 1777806855 | 3.33° C | 80% | 1005.8 hPa | 0 mm | - | 24 W/m² | - |
| 1777806551 | 2.78° C | 79% | 1005.6 hPa | 0 mm | - | 19 W/m² | - |
| 1777806247 | 2.78° C | 79% | 1005.5 hPa | 0 mm | - | 16 W/m² | - |
| 1777805944 | 2.78° C | 79% | 1005.8 hPa | 0 mm | - | 11 W/m² | - |
| 1777805641 | 2.78° C | 78% | 1005.7 hPa | 0 mm | - | 7 W/m² | - |
| 1777805338 | 2.78° C | 78% | 1005.8 hPa | 0 mm | - | 6 W/m² | - |
| 1777805036 | 2.78° C | 77% | 1005.8 hPa | 0 mm | - | 4 W/m² | - |
| 1777804733 | 2.78° C | 77% | 1005.7 hPa | 0 mm | - | 3 W/m² | - |
| 1777804431 | 2.78° C | 77% | 1005.7 hPa | 0 mm | - | 0 W/m² | - |
| 1777804128 | 2.78° C | 76% | 1005.9 hPa | 0 mm | - | 0 W/m² | - |
| 1777803825 | 3.33° C | 75% | 1005.8 hPa | 0 mm | - | 0 W/m² | - |
| 1777803520 | 3.33° C | 74% | 1006 hPa | 0 mm | - | 0 W/m² | - |
| 1777803218 | 2.78° C | 74% | 1006 hPa | 0 mm | - | 0 W/m² | - |
| 1777802915 | 2.78° C | 75% | 1006.3 hPa | 0 mm | - | 0 W/m² | - |
| 1777802613 | 2.78° C | 75% | 1006.2 hPa | 0 mm | - | 0 W/m² | - |
| 1777802310 | 2.78° C | 75% | 1006.2 hPa | 0 mm | - | 0 W/m² | - |
| 1777802009 | 2.78° C | 75% | 1006.6 hPa | 0 mm | - | 0 W/m² | - |
| 1777801706 | 2.78° C | 75% | 1006.6 hPa | 0 mm | - | 0 W/m² | - |
| 1777801403 | 2.78° C | 74% | 1006.4 hPa | 0 mm | - | 0 W/m² | - |
| 1777801099 | 2.78° C | 74% | 1006.9 hPa | 0 mm | - | 0 W/m² | - |
| 1777800796 | 3.33° C | 74% | 1006.8 hPa | 0 mm | - | 0 W/m² | - |
* Rain latest hour (hover to see other rain measurements)
** Current wind speed in m/s (hover to see current wind gust speed)